User: anonymous   Login
Location: Bonn
(50.7330°N, 7.1000°E)
Time: 19:30:43
(UTC+02:00)
Language:

Iridium 84 - Orbit

View from above orbital plane
View from above orbital plane
View from above satellite
View from above satellite

Ground track
Ground track

The orbit data is extracted from the following two-line orbital elements,

1 25530U 98066D   15145.50541346  .00000105  00000-0  30501-4 0  9997
2 25530 086.3932 305.0318 0002226 093.8059 266.3391 14.34218562868978
Epoch (UTC): 25 May 2015 12:07:47
Eccentricity: 0.0002226
inclination: 86.3932°
perigee height: 776 km
apogee height: 779 km
right ascension of ascending node: 305.0318°
argument of perigee: 93.8059°
revolutions per day: 14.34218562
mean anomaly at epoch: 266.3391°
orbit number at epoch: 86897

The dashed part of the orbit path shows where the satellite is in the earth's shadow,  

DLR